This is the latest recevied weather packets stored in our database for station/object GOLDWX. If no packets are shown the sender has not sent any weather packets the latest 10 day(s).
| Time | Temp. | Humidity | Pressure | Rain* | Wind** | Luminosity | Snow |
|---|---|---|---|---|---|---|---|
| 1777953954 | 11.67° C | 47% | 1010 hPa | 0 mm | - | - | - |
| 1777953352 | 12.22° C | 44% | 1009.7 hPa | 0 mm | - | - | - |
| 1777953052 | 12.22° C | 44% | 1009.8 hPa | 0 mm | - | - | - |
| 1777952450 | 12.22° C | 43% | 1009.6 hPa | 0 mm | - | - | - |
| 1777952149 | 12.78° C | 43% | 1009.6 hPa | 0 mm | - | - | - |
| 1777951547 | 12.78° C | 43% | 1009.3 hPa | 0 mm | - | - | - |
| 1777951247 | 12.78° C | 43% | 1009.3 hPa | 0 mm | - | - | - |
| 1777950645 | 12.78° C | 43% | 1009.2 hPa | 0 mm | - | - | - |
| 1777950344 | 12.78° C | 43% | 1009.2 hPa | 0 mm | - | - | - |
| 1777949742 | 12.78° C | 43% | 1009.1 hPa | 0 mm | - | - | - |
| 1777948840 | 12.78° C | 41% | 1008.9 hPa | 0 mm | - | - | - |
| 1777948539 | 12.22° C | 41% | 1008.9 hPa | 0 mm | - | - | - |
| 1777947937 | 12.78° C | 41% | 1008.7 hPa | 0 mm | - | - | - |
| 1777947637 | 12.22° C | 42% | 1008.6 hPa | 0 mm | - | - | - |
| 1777947033 | 12.78° C | 42% | 1008.7 hPa | 0 mm | - | - | - |
| 1777946732 | 12.78° C | 42% | 1008.6 hPa | 0 mm | - | - | - |
| 1777946130 | 12.78° C | 42% | 1008.7 hPa | 0 mm | - | - | - |
| 1777945830 | 12.78° C | 42% | 1008.7 hPa | 0 mm | - | - | - |
| 1777945228 | 13.33° C | 43% | 1008.6 hPa | 0 mm | - | - | - |
| 1777944928 | 13.33° C | 43% | 1008.6 hPa | 0 mm | - | - | - |
| 1777944326 | 13.89° C | 42% | 1008.6 hPa | 0 mm | - | - | - |
| 1777944025 | 13.89° C | 41% | 1008.6 hPa | 0 mm | - | - | - |
| 1777943423 | 14.44° C | 39% | 1008.6 hPa | 0 mm | - | - | - |
| 1777943122 | 15° C | 37% | 1008.4 hPa | 0 mm | - | - | - |
| 1777942520 | 15° C | 36% | 1008.5 hPa | 0 mm | - | - | - |
* Rain since midnight (hover to see other rain measurements)
** Current wind speed in m/s (hover to see current wind gust speed)